Time,TemperatureF,DewpointF,PressureIn,WindDirection,WindDirectionDegrees,WindSpeedMPH,WindSpeedGustMPH,Humidity,HourlyPrecipIn,Conditions,Clouds,dailyrainin,SolarRadiationWatts/m^2,SoftwareType,DateUTC
2013-02-03 00:00:00,47.0,47.0,30.27,SSW,195,6.0,-999.0,99,0.00,,,-99.99,0.000000,,2013-02-03 08:00:00,
2013-02-03 00:22:00,47.0,47.0,30.27,SSW,195,6.0,-999.0,99,0.00,,,-99.99,0.000000,,2013-02-03 08:22:00,
2013-02-03 00:32:00,47.0,47.0,30.27,SSW,195,6.0,-999.0,99,0.00,,,-99.99,0.000000,,2013-02-03 08:32:00,
2013-02-03 00:42:00,47.0,47.0,30.27,SSW,195,6.0,-999.0,99,0.00,,,-99.99,0.000000,,2013-02-03 08:42:00,
2013-02-03 00:52:00,47.0,47.0,30.27,SSW,195,6.0,-999.0,99,0.00,,,-99.99,0.000000,,2013-02-03 08:52:00,
2013-02-03 01:00:00,46.0,-99.9,30.26,South,186,5.0,-999.0,101,0.00,,,-99.99,0.000000,,2013-02-03 09:00:00,
2013-02-03 01:22:00,46.0,-99.9,30.26,South,186,5.0,-999.0,101,0.00,,,-99.99,0.000000,,2013-02-03 09:22:00,
2013-02-03 01:32:00,46.0,-99.9,30.26,South,186,5.0,-999.0,101,0.00,,,-99.99,0.000000,,2013-02-03 09:32:00,
2013-02-03 01:42:00,46.0,-99.9,30.26,South,186,5.0,-999.0,101,0.00,,,-99.99,0.000000,,2013-02-03 09:42:00,
2013-02-03 01:52:00,46.0,-99.9,30.26,South,186,5.0,-999.0,101,0.00,,,-99.99,0.000000,,2013-02-03 09:52:00,
2013-02-03 02:00:00,46.0,-99.9,30.25,South,169,3.0,-999.0,100,0.00,,,-99.99,0.000000,,2013-02-03 10:00:00,
2013-02-03 02:22:00,46.0,-99.9,30.25,South,169,3.0,-999.0,100,0.00,,,-99.99,0.000000,,2013-02-03 10:22:00,
2013-02-03 02:32:00,46.0,-99.9,30.25,South,169,3.0,-999.0,100,0.00,,,-99.99,0.000000,,2013-02-03 10:32:00,
2013-02-03 02:42:00,46.0,-99.9,30.25,South,169,3.0,-999.0,100,0.00,,,-99.99,0.000000,,2013-02-03 10:42:00,
2013-02-03 02:53:00,46.0,-99.9,30.25,South,169,3.0,-999.0,100,0.00,,,-99.99,0.000000,,2013-02-03 10:53:00,
2013-02-03 03:00:00,46.0,45.0,30.24,SSW,192,6.0,-999.0,95,0.00,,,-99.99,0.000000,,2013-02-03 11:00:00,
2013-02-03 03:22:00,46.0,45.0,30.24,SSW,192,6.0,-999.0,95,0.00,,,-99.99,0.000000,,2013-02-03 11:22:00,
2013-02-03 03:32:00,46.0,45.0,30.24,SSW,192,6.0,-999.0,95,0.00,,,-99.99,0.000000,,2013-02-03 11:32:00,
2013-02-03 03:42:00,46.0,45.0,30.24,SSW,192,6.0,-999.0,95,0.00,,,-99.99,0.000000,,2013-02-03 11:42:00,
2013-02-03 03:52:00,46.0,45.0,30.24,SSW,192,6.0,-999.0,95,0.00,,,-99.99,0.000000,,2013-02-03 11:52:00,
2013-02-03 04:00:00,47.0,45.0,30.24,South,175,6.0,-999.0,95,0.00,,,-99.99,0.000000,,2013-02-03 12:00:00,
2013-02-03 04:22:00,47.0,45.0,30.24,South,175,6.0,-999.0,95,0.00,,,-99.99,0.000000,,2013-02-03 12:22:00,
2013-02-03 04:32:00,47.0,45.0,30.24,South,175,6.0,-999.0,95,0.00,,,-99.99,0.000000,,2013-02-03 12:32:00,
2013-02-03 04:42:00,47.0,45.0,30.24,South,175,6.0,-999.0,95,0.00,,,-99.99,0.000000,,2013-02-03 12:42:00,
2013-02-03 04:53:00,47.0,45.0,30.24,South,175,6.0,-999.0,95,0.00,,,-99.99,0.000000,,2013-02-03 12:53:00,
2013-02-03 05:00:00,46.0,44.0,30.24,South,176,5.0,-999.0,90,0.00,,,-99.99,0.000000,,2013-02-03 13:00:00,
2013-02-03 05:32:00,46.0,44.0,30.24,South,176,5.0,-999.0,90,0.00,,,-99.99,0.000000,,2013-02-03 13:32:00,
2013-02-03 05:42:00,46.0,44.0,30.24,South,176,5.0,-999.0,90,0.00,,,-99.99,0.000000,,2013-02-03 13:42:00,
2013-02-03 05:52:00,46.0,44.0,30.24,South,176,5.0,-999.0,90,0.00,,,-99.99,0.000000,,2013-02-03 13:52:00,
2013-02-03 07:00:00,46.0,45.0,30.25,South,181,4.0,-999.0,96,0.00,,,-99.99,0.000000,,2013-02-03 15:00:00,
2013-02-03 07:23:00,46.0,45.0,30.25,South,181,4.0,-999.0,96,0.00,,,-99.99,0.000000,,2013-02-03 15:23:00,
2013-02-03 07:33:00,46.0,45.0,30.25,South,181,4.0,-999.0,96,0.00,,,-99.99,0.000000,,2013-02-03 15:33:00,
2013-02-03 07:42:00,46.0,45.0,30.25,South,181,4.0,-999.0,96,0.00,,,-99.99,0.000000,,2013-02-03 15:42:00,
2013-02-03 07:52:00,46.0,45.0,30.25,South,181,4.0,-999.0,96,0.00,,,-99.99,0.000000,,2013-02-03 15:52:00,
2013-02-03 08:00:00,46.0,46.0,30.26,South,179,3.0,-999.0,98,0.00,,,-99.99,1.700000,,2013-02-03 16:00:00,
2013-02-03 08:22:00,46.0,46.0,30.26,South,179,3.0,-999.0,98,0.00,,,-99.99,1.700000,,2013-02-03 16:22:00,
2013-02-03 08:33:00,46.0,46.0,30.26,South,179,3.0,-999.0,98,0.00,,,-99.99,1.700000,,2013-02-03 16:33:00,
2013-02-03 08:42:00,46.0,46.0,30.26,South,179,3.0,-999.0,98,0.00,,,-99.99,1.700000,,2013-02-03 16:42:00,
2013-02-03 08:52:00,46.0,46.0,30.26,South,179,3.0,-999.0,98,0.00,,,-99.99,1.700000,,2013-02-03 16:52:00,
2013-02-03 09:00:00,47.0,46.0,30.28,WNW,296,4.0,-999.0,98,0.00,,,-99.99,17.900000,,2013-02-03 17:00:00,
2013-02-03 09:22:00,47.0,46.0,30.28,WNW,296,4.0,-999.0,98,0.00,,,-99.99,17.900000,,2013-02-03 17:22:00,
2013-02-03 09:32:00,47.0,46.0,30.28,WNW,296,4.0,-999.0,98,0.00,,,-99.99,17.900000,,2013-02-03 17:32:00,
2013-02-03 09:42:00,47.0,46.0,30.28,WNW,296,4.0,-999.0,98,0.00,,,-99.99,17.900000,,2013-02-03 17:42:00,
2013-02-03 09:52:00,47.0,46.0,30.28,WNW,296,4.0,-999.0,98,0.00,,,-99.99,17.900000,,2013-02-03 17:52:00,
2013-02-03 10:00:00,47.0,46.0,30.28,West,279,1.0,-999.0,98,0.00,,,-99.99,62.000000,,2013-02-03 18:00:00,
2013-02-03 10:23:00,47.0,46.0,30.28,West,279,1.0,-999.0,98,0.00,,,-99.99,62.000000,,2013-02-03 18:23:00,
2013-02-03 10:33:00,47.0,46.0,30.28,West,279,1.0,-999.0,98,0.00,,,-99.99,62.000000,,2013-02-03 18:33:00,
2013-02-03 10:42:00,47.0,46.0,30.28,West,279,1.0,-999.0,98,0.00,,,-99.99,62.000000,,2013-02-03 18:42:00,
2013-02-03 10:52:00,47.0,46.0,30.28,West,279,1.0,-999.0,98,0.00,,,-99.99,62.000000,,2013-02-03 18:52:00,
2013-02-03 11:00:00,48.0,47.0,30.28,SW,225,4.0,-999.0,95,0.00,,,-99.99,116.300003,,2013-02-03 19:00:00,
2013-02-03 11:22:00,48.0,47.0,30.28,SW,225,4.0,-999.0,95,0.00,,,-99.99,116.300003,,2013-02-03 19:22:00,
2013-02-03 11:32:00,48.0,47.0,30.28,SW,225,4.0,-999.0,95,0.00,,,-99.99,116.300003,,2013-02-03 19:32:00,
2013-02-03 11:42:00,48.0,47.0,30.28,SW,225,4.0,-999.0,95,0.00,,,-99.99,116.300003,,2013-02-03 19:42:00,
2013-02-03 11:52:00,48.0,47.0,30.28,SW,225,4.0,-999.0,95,0.00,,,-99.99,116.300003,,2013-02-03 19:52:00,
2013-02-03 12:00:00,47.0,46.0,30.28,WNW,288,4.0,-999.0,96,0.00,,,-99.99,148.899994,,2013-02-03 20:00:00,
2013-02-03 12:22:00,47.0,46.0,30.28,WNW,288,4.0,-999.0,96,0.00,,,-99.99,148.899994,,2013-02-03 20:22:00,
2013-02-03 12:33:00,47.0,46.0,30.28,WNW,288,4.0,-999.0,96,0.00,,,-99.99,148.899994,,2013-02-03 20:33:00,
2013-02-03 12:42:00,47.0,46.0,30.28,WNW,288,4.0,-999.0,96,0.00,,,-99.99,148.899994,,2013-02-03 20:42:00,
2013-02-03 12:52:00,47.0,46.0,30.28,WNW,288,4.0,-999.0,96,0.00,,,-99.99,148.899994,,2013-02-03 20:52:00,
2013-02-03 13:00:00,47.0,46.0,30.26,West,267,3.0,-999.0,96,0.00,,,-99.99,93.300003,,2013-02-03 21:00:00,
2013-02-03 13:22:00,47.0,46.0,30.26,West,267,3.0,-999.0,96,0.00,,,-99.99,93.300003,,2013-02-03 21:22:00,
2013-02-03 13:33:00,47.0,46.0,30.26,West,267,3.0,-999.0,96,0.00,,,-99.99,93.300003,,2013-02-03 21:33:00,
2013-02-03 13:42:00,47.0,46.0,30.26,West,267,3.0,-999.0,96,0.00,,,-99.99,93.300003,,2013-02-03 21:42:00,
2013-02-03 13:52:00,47.0,46.0,30.26,West,267,3.0,-999.0,96,0.00,,,-99.99,93.300003,,2013-02-03 21:52:00,
2013-02-03 14:00:00,47.0,46.0,30.25,WSW,249,4.0,-999.0,95,0.00,,,-99.99,74.800003,,2013-02-03 22:00:00,
2013-02-03 14:22:00,47.0,46.0,30.25,WSW,249,4.0,-999.0,95,0.00,,,-99.99,74.800003,,2013-02-03 22:22:00,
2013-02-03 14:32:00,47.0,46.0,30.25,WSW,249,4.0,-999.0,95,0.00,,,-99.99,74.800003,,2013-02-03 22:32:00,
2013-02-03 14:42:00,47.0,46.0,30.25,WSW,249,4.0,-999.0,95,0.00,,,-99.99,74.800003,,2013-02-03 22:42:00,
2013-02-03 14:52:00,47.0,46.0,30.25,WSW,249,4.0,-999.0,95,0.00,,,-99.99,74.800003,,2013-02-03 22:52:00,
2013-02-03 15:00:00,47.0,45.0,30.25,SW,233,4.0,-999.0,95,0.00,,,-99.99,83.199997,,2013-02-03 23:00:00,
2013-02-03 15:22:00,47.0,45.0,30.25,SW,233,4.0,-999.0,95,0.00,,,-99.99,83.199997,,2013-02-03 23:22:00,
2013-02-03 15:32:00,47.0,45.0,30.25,SW,233,4.0,-999.0,95,0.00,,,-99.99,83.199997,,2013-02-03 23:32:00,
2013-02-03 15:42:00,47.0,45.0,30.25,SW,233,4.0,-999.0,95,0.00,,,-99.99,83.199997,,2013-02-03 23:42:00,
2013-02-03 15:52:00,47.0,45.0,30.25,SW,233,4.0,-999.0,95,0.00,,,-99.99,83.199997,,2013-02-03 23:52:00,
2013-02-03 16:00:00,46.0,44.0,30.25,South,183,3.0,-999.0,92,0.00,,,-99.99,40.400002,,2013-02-04 00:00:00,
2013-02-03 16:22:00,46.0,44.0,30.25,South,183,3.0,-999.0,92,0.00,,,-99.99,40.400002,,2013-02-04 00:22:00,
2013-02-03 16:32:00,46.0,44.0,30.25,South,183,3.0,-999.0,92,0.00,,,-99.99,40.400002,,2013-02-04 00:32:00,
2013-02-03 16:42:00,46.0,44.0,30.25,South,183,3.0,-999.0,92,0.00,,,-99.99,40.400002,,2013-02-04 00:42:00,
2013-02-03 16:52:00,46.0,44.0,30.25,South,183,3.0,-999.0,92,0.00,,,-99.99,40.400002,,2013-02-04 00:52:00,
2013-02-03 17:00:00,46.0,45.0,30.24,South,181,2.0,-999.0,96,0.00,,,-99.99,12.500000,,2013-02-04 01:00:00,
2013-02-03 17:22:00,46.0,45.0,30.24,South,181,2.0,-999.0,96,0.00,,,-99.99,12.500000,,2013-02-04 01:22:00,
2013-02-03 17:32:00,46.0,45.0,30.24,South,181,2.0,-999.0,96,0.00,,,-99.99,12.500000,,2013-02-04 01:32:00,
2013-02-03 17:42:00,46.0,45.0,30.24,South,181,2.0,-999.0,96,0.00,,,-99.99,12.500000,,2013-02-04 01:42:00,
2013-02-03 17:52:00,46.0,45.0,30.24,South,181,2.0,-999.0,96,0.00,,,-99.99,12.500000,,2013-02-04 01:52:00,
2013-02-03 18:00:00,45.0,45.0,30.24,SSE,167,2.0,-999.0,98,0.00,,,-99.99,1.300000,,2013-02-04 02:00:00,
2013-02-03 18:22:00,45.0,45.0,30.24,SSE,167,2.0,-999.0,98,0.00,,,-99.99,1.300000,,2013-02-04 02:22:00,
2013-02-03 18:32:00,45.0,45.0,30.24,SSE,167,2.0,-999.0,98,0.00,,,-99.99,1.300000,,2013-02-04 02:32:00,
2013-02-03 18:42:00,45.0,45.0,30.24,SSE,167,2.0,-999.0,98,0.00,,,-99.99,1.300000,,2013-02-04 02:42:00,
2013-02-03 18:52:00,45.0,45.0,30.24,SSE,167,2.0,-999.0,98,0.00,,,-99.99,1.300000,,2013-02-04 02:52:00,
2013-02-03 19:00:00,45.0,45.0,30.23,SSE,167,3.0,-999.0,99,0.00,,,-99.99,0.000000,,2013-02-04 03:00:00,
2013-02-03 19:21:00,45.0,45.0,30.23,SSE,167,3.0,-999.0,99,0.00,,,-99.99,0.000000,,2013-02-04 03:21:00,
2013-02-03 19:32:00,45.0,45.0,30.23,SSE,167,3.0,-999.0,99,0.00,,,-99.99,0.000000,,2013-02-04 03:32:00,
2013-02-03 19:42:00,45.0,45.0,30.23,SSE,167,3.0,-999.0,99,0.00,,,-99.99,0.000000,,2013-02-04 03:42:00,
2013-02-03 19:52:00,45.0,45.0,30.23,SSE,167,3.0,-999.0,99,0.00,,,-99.99,0.000000,,2013-02-04 03:52:00,
2013-02-03 21:00:00,45.0,45.0,30.24,SSW,207,5.0,-999.0,98,0.00,,,-99.99,0.000000,,2013-02-04 05:00:00,
2013-02-03 21:22:00,45.0,45.0,30.24,SSW,207,5.0,-999.0,98,0.00,,,-99.99,0.000000,,2013-02-04 05:22:00,
2013-02-03 21:33:00,45.0,45.0,30.24,SSW,207,5.0,-999.0,98,0.00,,,-99.99,0.000000,,2013-02-04 05:33:00,
2013-02-03 21:42:00,45.0,45.0,30.24,SSW,207,5.0,-999.0,98,0.00,,,-99.99,0.000000,,2013-02-04 05:42:00,
2013-02-03 21:52:00,45.0,45.0,30.24,SSW,207,5.0,-999.0,98,0.00,,,-99.99,0.000000,,2013-02-04 05:52:00,
2013-02-03 22:00:00,45.0,45.0,30.22,WSW,243,4.0,-999.0,99,0.00,,,-99.99,0.000000,,2013-02-04 06:00:00,
2013-02-03 22:21:00,45.0,45.0,30.22,WSW,243,4.0,-999.0,99,0.00,,,-99.99,0.000000,,2013-02-04 06:21:00,
2013-02-03 22:32:00,45.0,45.0,30.22,WSW,243,4.0,-999.0,99,0.00,,,-99.99,0.000000,,2013-02-04 06:32:00,
2013-02-03 22:42:00,45.0,45.0,30.22,WSW,243,4.0,-999.0,99,0.00,,,-99.99,0.000000,,2013-02-04 06:42:00,
2013-02-03 22:52:00,45.0,45.0,30.22,WSW,243,4.0,-999.0,99,0.00,,,-99.99,0.000000,,2013-02-04 06:52:00,
2013-02-03 23:00:00,45.0,45.0,30.21,West,276,6.0,-999.0,98,0.00,,,-99.99,0.000000,,2013-02-04 07:00:00,
2013-02-03 23:21:00,45.0,45.0,30.21,West,276,6.0,-999.0,98,0.00,,,-99.99,0.000000,,2013-02-04 07:21:00,
2013-02-03 23:32:00,45.0,45.0,30.21,West,276,6.0,-999.0,98,0.00,,,-99.99,0.000000,,2013-02-04 07:32:00,
2013-02-03 23:42:00,45.0,45.0,30.21,West,276,6.0,-999.0,98,0.00,,,-99.99,0.000000,,2013-02-04 07:42:00,
2013-02-03 23:52:00,45.0,45.0,30.21,West,276,6.0,-999.0,98,0.00,,,-99.99,0.000000,,2013-02-04 07:52:00,